DECAYED
Showing default

ICEYE-X20, 52759 (Decayed)

Orbit data source: Space-Track

ICEYE-X20, 52759 was a Finnish payload satellite in LEO that was launched on Wed, 25 May 2022 UTC via an FALCON 9 launch vehicle from the Air Force Eastern Test Range (AFETR). Payload-class satellites include a variety of spacecraft equipped with specific instruments for various scientific and technological missions. These include communications satellites like Starlink; space stations such as the ISS; scientific satellites like the Hubble; Earth observation satellites from companies like Planet Labs, Umbra, and HawkEye 360; GPS; miniature CubeSats for education and research; and military/defense satellites.

Not visible in the next 10 days
Identifier
52759, 2022-057AD
Orbit
Decayed
Country
Flag of FIFI / FIN
Related business
Manufacturer
ICEYE
Mission
Decayed Commercial Radar Imaging
Bus & Motor
ICEYE, Unknown motor
Mass
80 kg wet, 80 kg dry
Launch date (UTC)
2022-05-25 (4 years ago)
Launch vehicle
FALCON 9
Launch site
Air Force Eastern Test Range (AFETR)
Object type
Payload
Rocket body
Debris
Shape & HBR
Box + 1 Pan, 1.6 m
Radar Cross Section
1.837 m², Medium (>0.1 m² and < 1m²)

Expand to show TLE details & history
Last TLE update: 8 months ago

TLE from 8 months ago
0 ICEYE-X20
1 52759U 22057AD  25288.74393741  .01742113  25574-5  84146-3 0  9990
2 52759  97.5862  97.7652 0004113 237.9067 122.1823 16.21266745190476
Epoch: 2025-10-15T17:51Z
TLE epoch observation values (Epoch: 2025-10-15T17:51:16.192Z)
Latitude
-0°
Longitude
165.43411°
Altitude
220.781 km
Speed
7.773 km/s
True Right ascension
06h 31m 03s
True Declination
0° 00' 00"
Sunlit
Object was in daylight at epoch
Visualization orbit readout
Latitude
Unknown
Longitude
Unknown
Altitude
Unknown
Speed
Unknown
Apparent Right ascension
Unknown
Apparent Declination
Unknown
Sunlit
N/A
Visualization observer readout
Local Sidereal Time
21:55:36
Azimuth
Unknown
Elevation
Unknown
Doppler factor
Unknown
Orbital elements
Apogee altitude
215.666 km
Perigee altitude
210.244 km
Semi-major axis
6,591.092 km
Eccentricity
0.00041
Inclination
97.5862°
RAAN
97.7652°
Arg. of periapsis
237.9067°
True anomaly
122.22218°
Mean anomaly
122.1823°
Eccentric anomaly
122.20224°
Mean motion
4.05609 °/min
Orbital period
88.76 mins
BSTAR
0.00084146
Loading maneuver chart data...
Computing Atmospheric mass density...
Loading historical data...
Loading historical data...
Loading historical data...
Loading historical data...
Loading historical data...
Loading historical data...
Loading historical data...

Documentation

Showing up to 5 results
|